This is the latest recevied weather packets stored in our database for station/object KR8N. If no packets are shown the sender has not sent any weather packets the latest 1 day(s).
| Time | Temp. | Humidity | Pressure | Rain* | Wind** | Luminosity | Snow |
|---|---|---|---|---|---|---|---|
| 1778046925 | 17.78° C | 49% | 1012.1 hPa | 0 mm | 0.89 m/s, 139° | 0 W/m² | - |
| 1778046621 | 17.78° C | 48% | 1012.5 hPa | 0 mm | 0.89 m/s, 132° | 0 W/m² | - |
| 1778046319 | 17.78° C | 48% | 1012.5 hPa | 0 mm | 0 m/s | 0 W/m² | - |
| 1778046014 | 17.78° C | 48% | 1012.4 hPa | 0 mm | 0.45 m/s, 119° | 0 W/m² | - |
| 1778045713 | 17.78° C | 49% | 1012.8 hPa | 0 mm | 0 m/s | 0 W/m² | - |
| 1778045411 | 17.78° C | 49% | 1012.7 hPa | 0 mm | 0 m/s | 0 W/m² | - |
| 1778045109 | 17.78° C | 48% | 1012.8 hPa | 0 mm | 0.45 m/s, 127° | 0 W/m² | - |
| 1778044806 | 17.78° C | 48% | 1012.7 hPa | 0 mm | 0.89 m/s, 129° | 0 W/m² | - |
| 1778044503 | 17.78° C | 47% | 1012.8 hPa | 0 mm | 0.89 m/s, 174° | 0 W/m² | - |
| 1778044200 | 17.78° C | 47% | 1013 hPa | 0 mm | 0.89 m/s, 207° | 0 W/m² | - |
| 1778043898 | 17.78° C | 47% | 1013.3 hPa | 0 mm | 0.89 m/s, 144° | 0 W/m² | - |
| 1778043595 | 17.78° C | 46% | 1013.2 hPa | 0 mm | 0.45 m/s, 116° | 0 W/m² | - |
| 1778043291 | 18.33° C | 46% | 1013 hPa | 0 mm | 0.89 m/s, 145° | 0 W/m² | - |
| 1778042988 | 18.33° C | 47% | 1013.5 hPa | 0 mm | 0.45 m/s, 142° | 0 W/m² | - |
| 1778042686 | 18.33° C | 46% | 1013.2 hPa | 0 mm | 0.45 m/s, 137° | 0 W/m² | - |
| 1778042382 | 18.33° C | 45% | 1013.4 hPa | 0 mm | 0.45 m/s, 124° | 0 W/m² | - |
| 1778042080 | 18.33° C | 45% | 1013.3 hPa | 0 mm | 0.89 m/s, 127° | 0 W/m² | - |
| 1778041777 | 18.33° C | 45% | 1013.6 hPa | 0 mm | 0.89 m/s, 142° | 0 W/m² | - |
| 1778041477 | 18.33° C | 46% | 1013.5 hPa | 0 mm | 0.89 m/s, 130° | 0 W/m² | - |
| 1778041174 | 18.33° C | 45% | 1013.5 hPa | 0 mm | 0.89 m/s, 139° | 0 W/m² | - |
| 1778040872 | 18.33° C | 45% | 1013.6 hPa | 0 mm | 1.34 m/s, 196° | 0 W/m² | - |
| 1778040569 | 18.33° C | 44% | 1013.5 hPa | 0 mm | 0.89 m/s, 145° | 0 W/m² | - |
| 1778040266 | 18.33° C | 45% | 1013.5 hPa | 0 mm | 0.89 m/s, 111° | 0 W/m² | - |
| 1778039962 | 18.33° C | 45% | 1013.5 hPa | 0 mm | 0 m/s | 0 W/m² | - |
| 1778039660 | 18.33° C | 45% | 1013.6 hPa | 0 mm | 1.34 m/s, 222° | 0 W/m² | - |
* Rain latest hour (hover to see other rain measurements)
** Current wind speed in m/s (hover to see current wind gust speed)